Flag for Germany Weather past 2 weeks in Ehingen (Donau), Baden-Württemberg, Germany

Now
43 °F

Quite cool.


Feels Like: 43 °F
Forecast: 36 / 62 °F
Wind: 2 mph from Northeast

Location: Laupheim Airport

Current Time: Sep 24, 2014 at 1:02:01 AM

Latest Report: Sep 24, 2014 at 12:20 AM


Visibility: N/A

Pressure: 30.07 "Hg

Humidity: 93%

Dew point: 41 °F

Location of Ehingen (Donau)Location

Historic Weather in Ehingen (Donau) — Graph

°F

Ehingen (Donau) temperature yesterday

Maximum temperature yesterday: 57 °F (at 3:20 PM)
Minimum temperature yesterday: 41 °F (at 12:20 AM)
Average temperature yesterday: 47 °F

Past Weeks' High & Low Weather Summary

 TemperatureHumidityPressure
High75 °F (Sep 19, 2:45 PM)100% (Sep 9, 2:20 AM)30.21 "Hg (Sep 9, 2:20 AM)
Low41 °F (Sep 22, 11:20 PM)55% (Sep 23, 2:20 PM)29.92 "Hg (Sep 17, 3:20 PM)
Average57 °F89%30.03 "Hg
* Reported Sep 8 11:20 PM — Sep 23 11:20 PM, Ehingen (Donau), Weather by CustomWeather, © 2014

Note: Actual official high and low records may vary slightly from our data, if they occured in-between our weather recording intervals... More about our weather records

Advertising

Ehingen (Donau) weather history for previous 24 hours

 ConditionsComfort  
Time TempWeatherWind HumidityBarometerVisibility
11:20 PM
Sep 23
45 °FQuite cool.3 mph87%30.07 "HgN/A
10:20 PM45 °FQuite cool.6 mph87%30.07 "HgN/A
9:20 PM45 °FPassing clouds.6 mph87%30.07 "HgN/A
8:20 PM46 °FPassing clouds.6 mph87%30.07 "HgN/A
7:20 PM50 °FPassing clouds.6 mph76%30.07 "HgN/A
6:20 PM54 °FCool.9 mph67%30.07 "HgN/A
5:20 PM57 °FPassing clouds.9 mph55%30.07 "HgN/A
4:20 PM57 °FPassing clouds.8 mph55%30.09 "HgN/A
3:20 PM57 °FPassing clouds.9 mph55%30.09 "HgN/A
2:20 PM55 °FPassing clouds.5 mph55%30.15 "HgN/A
1:20 PM55 °FPassing clouds.2 mph59%30.15 "HgN/A
12:20 PM54 °FScattered clouds.1 mph63%30.18 "HgN/A
11:20 AM50 °FScattered clouds.5 mph76%30.18 "HgN/A
10:20 AM48 °FPassing clouds.2 mph82%30.21 "HgN/A
9:20 AM45 °FPassing clouds.2 mph87%30.18 "HgN/A
8:20 AM43 °FPassing clouds.3 mph93%30.18 "HgN/A
7:20 AM41 °FPassing clouds.5 mph93%30.18 "HgN/A
6:20 AM41 °FPassing clouds.5 mph93%30.15 "HgN/A
5:20 AM41 °FPassing clouds.3 mph93%30.15 "HgN/A
4:20 AM41 °FPassing clouds.3 mph93%30.15 "HgN/A
3:20 AM41 °FPassing clouds.3 mph93%30.15 "HgN/A
2:20 AM41 °FPassing clouds.3 mph93%30.15 "HgN/A
1:20 AM41 °FPassing clouds.3 mph93%30.15 "HgN/A
Weather by CustomWeather, © 2014

See weather overviewHow to use our weather pages